Location: Bosdarros
(43.2167°N, 0.3667°W)
Time: 06:44:41
(UTC+00:00)

SME Rocket - Pass Details

Date: 22 April 2021
Orbit: 550 x 2651 km, 99.9° (Epoch: 07 May)

Event Time Altitude Azimuth Distance (km) Brightness Sun altitude
Rises 19:35:37 0° 12° (NNE) 2,787 6.6 -8.1°
Reaches altitude 10° 19:37:32 10° 9° (N) 1,956 5.9 -8.4°
Maximum altitude 19:41:34 67° 287° (WNW) 772 3.8 -9.1°
Drops below altitude 10° 19:47:01 10° 206° (SSW) 2,631 6.3 -9.9°
Sets 19:49:56 0° 204° (SSW) 3,857 7.1 -10.4°
